This is the latest recevied weather packets stored in our database for station/object DG1ROH. If no packets are shown the sender has not sent any weather packets the latest 1 day(s).
| Time | Temp. | Humidity | Pressure | Rain* | Wind** | Luminosity | Snow |
|---|---|---|---|---|---|---|---|
| 1778086682 | 10.56° C | 90% | 1006.8 hPa | 0 mm | - | 28 W/m² | - |
| 1778086439 | 10.56° C | 90% | 1007 hPa | 0 mm | - | 49 W/m² | - |
| 1778085959 | 11.11° C | 89% | 1007 hPa | 0 mm | - | 54 W/m² | - |
| 1778085839 | 11.11° C | 89% | 1007 hPa | 0 mm | - | 49 W/m² | - |
| 1778085115 | 11.11° C | 89% | 1006.9 hPa | 0 mm | - | 33 W/m² | - |
| 1778084995 | 11.11° C | 90% | 1006.9 hPa | 0 mm | - | 42 W/m² | - |
| 1778084876 | 11.11° C | 89% | 1006.9 hPa | 0 mm | - | 60 W/m² | - |
| 1778084515 | 11.11° C | 90% | 1006.8 hPa | 0 mm | - | 128 W/m² | - |
| 1778084395 | 11.11° C | 90% | 1006.8 hPa | 0 mm | - | 83 W/m² | - |
| 1778084153 | 11.11° C | 89% | 1006.7 hPa | 0 mm | - | 74 W/m² | - |
| 1778084033 | 11.11° C | 89% | 1006.7 hPa | 0 mm | - | 54 W/m² | - |
| 1778083913 | 11.11° C | 89% | 1006.7 hPa | 0 mm | - | 58 W/m² | - |
| 1778083794 | 11.11° C | 89% | 1006.8 hPa | 0 mm | - | 60 W/m² | - |
| 1778083431 | 11.11° C | 89% | 1006.8 hPa | 0 mm | - | 72 W/m² | - |
| 1778083067 | 11.11° C | 89% | 1006.9 hPa | 0 mm | - | 77 W/m² | - |
| 1778082583 | 11.67° C | 89% | 1006.9 hPa | 0 mm | - | 56 W/m² | - |
| 1778082222 | 11.67° C | 89% | 1006.9 hPa | 0 mm | - | 67 W/m² | - |
| 1778082101 | 11.67° C | 89% | 1006.9 hPa | 0 mm | - | 84 W/m² | - |
| 1778081861 | 11.67° C | 89% | 1007 hPa | 0 mm | - | 91 W/m² | - |
| 1778080895 | 11.67° C | 90% | 1006.8 hPa | 0 mm | - | 102 W/m² | - |
| 1778080775 | 11.67° C | 90% | 1006.7 hPa | 0 mm | - | 107 W/m² | - |
| 1778080655 | 11.11° C | 90% | 1006.7 hPa | 0 mm | - | 139 W/m² | - |
| 1778080052 | 11.67° C | 90% | 1006.7 hPa | 0 mm | - | 79 W/m² | - |
| 1778079931 | 11.67° C | 90% | 1006.7 hPa | 0 mm | - | 63 W/m² | - |
| 1778079811 | 11.67° C | 90% | 1006.7 hPa | 0 mm | - | 76 W/m² | - |
* Rain latest hour (hover to see other rain measurements)
** Current wind speed in m/s (hover to see current wind gust speed)